QPF
0.01 0.03 0.03 0.04 0.04 0.03 0.03 0.04 0.05 0.08 0.08 0.09 0.08 0.07 0.06 0.06 0.07 0.06 0.06 0.09 0.12 0.10 0.10 0.11 0.11 0.11 0.10 0.09 0.09 0.09 0.08 0.07 0.06 0.06 0.05 0.04 0.03 0.03 0.04 0.04 0.05 0.06 0.06
0.02 0.03 0.04 0.06 0.05 0.03 0.03 0.04 0.05 0.06 0.06 0.08 0.06 0.06 0.06 0.06 0.07 0.07 0.07 0.10 0.10 0.10 0.09 0.10 0.10 0.11 0.14 0.11 0.10 0.07 0.06 0.06 0.08 0.08 0.07 0.05 0.04 0.03 0.02 0.03 0.03 0.04 0.06
0.02 0.03 0.05 0.05 0.04 0.03 0.03 0.03 0.04 0.05 0.06 0.06 0.05 0.05 0.07 0.06 0.05 0.06 0.07 0.07 0.07 0.09 0.10 0.11 0.13 0.14 0.13 0.11 0.10 0.09 0.08 0.07 0.06 0.08 0.08 0.07 0.05 0.04 0.03 0.02 0.02 0.04 0.04
0.03 0.03 0.04 0.04 0.03 0.03 0.03 0.03 0.04 0.04 0.05 0.05 0.05 0.05 0.06 0.06 0.06 0.08 0.10 0.10 0.09 0.10 0.10 0.10 0.10 0.12 0.11 0.09 0.08 0.07 0.08 0.08 0.07 0.07 0.08 0.08 0.07 0.06 0.04 0.03 0.04 0.05 0.05
0.03 0.03 0.03 0.02 0.02 0.02 0.02 0.02 0.03 0.03 0.03 0.03 0.04 0.05 0.06 0.07 0.07 0.09 0.11 0.09 0.08 0.08 0.08 0.08 0.09 0.10 0.11 0.12 0.12 0.07 0.05 0.06 0.07 0.07 0.08 0.08 0.08 0.07 0.06 0.05 0.05 0.06 0.07
0.04 0.03 0.02 0.02 0.02 0.01 0.02 0.02 0.02 0.02 0.02 0.03 0.05 0.05 0.05 0.06 0.06 0.05 0.06 0.06 0.06 0.06 0.07 0.06 0.07 0.09 0.10 0.10 0.08 0.06 0.05 0.06 0.06 0.06 0.06 0.06 0.06 0.06 0.06 0.06 0.06 0.07 0.07
0.04 0.03 0.03 0.02 0.02 0.02 0.02 0.03 0.04 0.02 0.02 0.02 0.03 0.04 0.06 0.06 0.05 0.05 0.04 0.04 0.05 0.05 0.06 0.07 0.06 0.06 0.06 0.07 0.07 0.06 0.05 0.05 0.06 0.06 0.07 0.07 0.06 0.05 0.05 0.06 0.06 0.05 0.05
0.02 0.02 0.03 0.02 0.03 0.03 0.03 0.06 0.10 0.07 0.02 0.01 0.02 0.04 0.06 0.08 0.07 0.06 0.05 0.04 0.04 0.04 0.05 0.07 0.07 0.06 0.06 0.07 0.07 0.06 0.05 0.05 0.06 0.05 0.06 0.06 0.07 0.06 0.06 0.05 0.05 0.04 0.03
0.03 0.03 0.03 0.04 0.05 0.05 0.04 0.06 0.09 0.06 0.03 0.02 0.02 0.04 0.05 0.06 0.06 0.06 0.05 0.04 0.03 0.02 0.02 0.04 0.07 0.08 0.08 0.07 0.07 0.06 0.06 0.06 0.05 0.05 0.06 0.06 0.05 0.06 0.06 0.06 0.05 0.05 0.04
0.04 0.03 0.03 0.05 0.08 0.07 0.06 0.05 0.05 0.03 0.03 0.04 0.03 0.03 0.04 0.04 0.04 0.04 0.04 0.04 0.03 0.02 0.03 0.03 0.04 0.07 0.07 0.08 0.08 0.07 0.06 0.05 0.04 0.05 0.05 0.05 0.06 0.07 0.06 0.05 0.05 0.06 0.05
0.03 0.03 0.03 0.04 0.06 0.07 0.07 0.06 0.05 0.04 0.04 0.03 0.03 0.03 0.04 0.05 0.05 0.04 0.04 0.04 0.03 0.03 0.03 0.04 0.04 0.05 0.06 0.07 0.07 0.06 0.06 0.05 0.04 0.05 0.05 0.06 0.07 0.10 0.10 0.07 0.06 0.06 0.05
0.04 0.02 0.03 0.03 0.03 0.04 0.05 0.04 0.03 0.03 0.03 0.02 0.03 0.03 0.04 0.04 0.04 0.02 0.02 0.03 0.03 0.03 0.03 0.05 0.05 0.05 0.06 0.06 0.05 0.04 0.04 0.04 0.03 0.04 0.05 0.05 0.06 0.08 0.12 0.10 0.07 0.06 0.06
0.03 0.02 0.02 0.02 0.03 0.04 0.03 0.02 0.02 0.02 0.02 0.02 0.02 0.03 0.03 0.03 0.03 0.03 0.03 0.03 0.04 0.04 0.04 0.05 0.05 0.05 0.06 0.05 0.04 0.04 0.03 0.04 0.03 0.04 0.04 0.04 0.03 0.05 0.07 0.09 0.08 0.06 0.05
0.04 0.03 0.01 0.03 0.04 0.04 0.03 0.03 0.03 0.03 0.02 0.02 0.03 0.04 0.04 0.04 0.04 0.04 0.04 0.04 0.04 0.04 0.05 0.06 0.06 0.06 0.06 0.05 0.04 0.03 0.03 0.04 0.03 0.02 0.03 0.03 0.04 0.04 0.05 0.07 0.08 0.07 0.07
0.09 0.05 0.02 0.03 0.05 0.04 0.03 0.02 0.03 0.03 0.03 0.04 0.04 0.04 0.03 0.04 0.03 0.03 0.03 0.03 0.03 0.04 0.04 0.05 0.05 0.08 0.07 0.04 0.03 0.03 0.04 0.05 0.04 0.04 0.04 0.04 0.05 0.06 0.06 0.06 0.08 0.08 0.07
0.08 0.05 0.03 0.03 0.05 0.04 0.02 0.02 0.01 0.01 0.02 0.03 0.03 0.02 0.02 0.03 0.04 0.03 0.02 0.03 0.04 0.05 0.05 0.04 0.04 0.06 0.05 0.03 0.02 0.03 0.05 0.06 0.07 0.08 0.07 0.05 0.05 0.06 0.05 0.04 0.05 0.05 0.04
0.05 0.04 0.03 0.03 0.04 0.04 0.03 0.02 0.01 0.01 0.02 0.02 0.03 0.02 0.03 0.04 0.05 0.04 0.06 0.07 0.07 0.06 0.06 0.04 0.04 0.04 0.04 0.02 0.02 0.03 0.05 0.07 0.07 0.06 0.06 0.05 0.04 0.05 0.05 0.03 0.02 0.02 0.03
0.04 0.03 0.03 0.03 0.03 0.03 0.03 0.02 0.01 0.01 0.02 0.02 0.03 0.03 0.03 0.05 0.07 0.07 0.10 0.12 0.09 0.06 0.04 0.03 0.03 0.03 0.03 0.01 0.01 0.02 0.02 0.04 0.04 0.04 0.03 0.04 0.04 0.04 0.03 0.02 0.02 0.03 0.04
0.04 0.02 0.02 0.03 0.02 0.02 0.02 0.02 0.02 0.02 0.02 0.02 0.03 0.05 0.04 0.04 0.06 0.07 0.08 0.08 0.07 0.06 0.04 0.03 0.03 0.03 0.03 0.01 0.01 0.01 0.02 0.03 0.03 0.03 0.03 0.03 0.03 0.04 0.03 0.03 0.03 0.03 0.04
0.05 0.04 0.02 0.01 0.02 0.03 0.04 0.04 0.03 0.03 0.03 0.03 0.03 0.04 0.05 0.04 0.05 0.04 0.05 0.05 0.04 0.05 0.03 0.02 0.02 0.02 0.02 0.01 0.00 0.01 0.01 0.01 0.02 0.03 0.03 0.03 0.04 0.05 0.04 0.03 0.03 0.03 0.04
0.01 0.02 0.02 0.02 0.03 0.03 0.04 0.04 0.04 0.05 0.05 0.04 0.04 0.04 0.04 0.05 0.04 0.03 0.03 0.03 0.02 0.02 0.02 0.01 0.01 0.01 0.01 0.00 0.00 0.00 0.01 0.01 0.02 0.02 0.02 0.02 0.02 0.03 0.03 0.05 0.03 0.02 0.02
0.01 0.01 0.01 0.02 0.02 0.04 0.04 0.03 0.04 0.05 0.07 0.06 0.05 0.04 0.04 0.04 0.02 0.02 0.02 0.02 0.01 0.01 0.01 0.01 0.01 0.01 0.01 0.00 0.00 0.00 0.00 0.01 0.01 0.01 0.01 0.01 0.01 0.01 0.02 0.04 0.03 0.02 0.02
0.01 0.01 0.02 0.02 0.03 0.03 0.02 0.02 0.05 0.05 0.05 0.05 0.05 0.04 0.03 0.03 0.02 0.02 0.02 0.02 0.02 0.01 0.01 0.01 0.01 0.01 0.00 0.00 0.01 0.01 0.01 0.01 0.01 0.02 0.01 0.02 0.01 0.01 0.01 0.02 0.03 0.02 0.02
0.00 0.01 0.01 0.02 0.04 0.03 0.02 0.03 0.04 0.04 0.03 0.04 0.04 0.04 0.02 0.01 0.01 0.01 0.01 0.02 0.01 0.01 0.01 0.01 0.01 0.01 0.00 0.01 0.02 0.03 0.02 0.02 0.02 0.02 0.03 0.03 0.02 0.02 0.02 0.02 0.03 0.03 0.02
0.00 0.01 0.02 0.02 0.03 0.02 0.03 0.03 0.03 0.03 0.03 0.03 0.02 0.02 0.01 0.01 0.01 0.01 0.01 0.01 0.00 0.01 0.01 0.01 0.01 0.01 0.01 0.02 0.02 0.01 0.01 0.02 0.02 0.02 0.04 0.05 0.04 0.04 0.05 0.03 0.03 0.04 0.03
0.00 0.01 0.01 0.01 0.02 0.02 0.02 0.02 0.02 0.02 0.02 0.02 0.02 0.01 0.01 0.01 0.00 0.00 0.00 0.00 0.00 0.00 0.01 0.01 0.01 0.01 0.01 0.01 0.01 0.01 0.01 0.01 0.01 0.02 0.03 0.03 0.03 0.03 0.03 0.03 0.03 0.03 0.03
MSLP
1016.84 1016.91 1016.96 1016.96 1016.90 1016.75 1016.52 1016.22 1015.86 1015.50 1015.16 1014.87 1014.64 1014.47 1014.34 1014.23 1014.09 1013.90 1013.67 1013.39 1013.09 1012.79 1012.51 1012.29 1012.12 1011.97 1011.83 1011.65 1011.39 1011.01 1010.51 1009.89 1009.20 1008.48 1007.80 1007.21 1006.75 1006.45 1006.30 1006.28 1006.34 1006.45 1006.55
1016.87 1017.01 1017.13 1017.21 1017.21 1017.12 1016.92 1016.63 1016.27 1015.88 1015.50 1015.16 1014.88 1014.66 1014.48 1014.31 1014.13 1013.92 1013.66 1013.36 1013.04 1012.73 1012.45 1012.23 1012.07 1011.95 1011.84 1011.71 1011.51 1011.20 1010.79 1010.26 1009.64 1008.99 1008.35 1007.77 1007.29 1006.94 1006.71 1006.58 1006.53 1006.53 1006.52
1016.85 1017.03 1017.21 1017.34 1017.41 1017.38 1017.23 1016.98 1016.64 1016.25 1015.85 1015.49 1015.16 1014.90 1014.67 1014.47 1014.26 1014.03 1013.75 1013.45 1013.12 1012.80 1012.51 1012.28 1012.10 1011.98 1011.87 1011.76 1011.60 1011.37 1011.03 1010.59 1010.08 1009.51 1008.93 1008.39 1007.90 1007.50 1007.19 1006.95 1006.78 1006.64 1006.52
1016.82 1016.98 1017.17 1017.34 1017.46 1017.49 1017.41 1017.21 1016.92 1016.56 1016.18 1015.81 1015.47 1015.18 1014.93 1014.70 1014.48 1014.24 1013.96 1013.66 1013.33 1013.00 1012.69 1012.43 1012.22 1012.06 1011.94 1011.82 1011.68 1011.48 1011.21 1010.86 1010.44 1009.96 1009.45 1008.94 1008.46 1008.02 1007.63 1007.29 1006.99 1006.72 1006.48
1016.77 1016.88 1017.03 1017.21 1017.36 1017.44 1017.43 1017.31 1017.09 1016.79 1016.45 1016.10 1015.77 1015.47 1015.22 1014.98 1014.76 1014.52 1014.25 1013.95 1013.62 1013.28 1012.94 1012.64 1012.38 1012.17 1012.00 1011.85 1011.69 1011.52 1011.29 1011.01 1010.66 1010.26 1009.82 1009.35 1008.87 1008.40 1007.95 1007.51 1007.10 1006.72 1006.37
1016.71 1016.72 1016.81 1016.95 1017.11 1017.23 1017.29 1017.25 1017.11 1016.89 1016.61 1016.30 1016.00 1015.72 1015.47 1015.25 1015.03 1014.79 1014.53 1014.24 1013.91 1013.55 1013.19 1012.84 1012.52 1012.24 1012.00 1011.79 1011.61 1011.42 1011.22 1010.97 1010.69 1010.35 1009.97 1009.54 1009.07 1008.59 1008.08 1007.58 1007.09 1006.62 1006.18
1016.65 1016.52 1016.51 1016.60 1016.75 1016.90 1017.01 1017.05 1016.99 1016.85 1016.64 1016.40 1016.14 1015.88 1015.65 1015.43 1015.22 1014.99 1014.74 1014.45 1014.11 1013.74 1013.35 1012.95 1012.56 1012.21 1011.89 1011.62 1011.38 1011.16 1010.96 1010.73 1010.49 1010.20 1009.86 1009.47 1009.03 1008.55 1008.03 1007.49 1006.95 1006.43 1005.94
1016.58 1016.31 1016.19 1016.21 1016.33 1016.49 1016.64 1016.74 1016.76 1016.69 1016.56 1016.36 1016.15 1015.92 1015.70 1015.49 1015.28 1015.06 1014.81 1014.52 1014.18 1013.79 1013.36 1012.92 1012.47 1012.04 1011.65 1011.30 1011.01 1010.75 1010.52 1010.30 1010.07 1009.82 1009.52 1009.18 1008.78 1008.32 1007.81 1007.28 1006.73 1006.19 1005.68
1016.52 1016.12 1015.89 1015.83 1015.91 1016.06 1016.23 1016.38 1016.45 1016.45 1016.37 1016.23 1016.04 1015.84 1015.63 1015.42 1015.21 1014.99 1014.74 1014.44 1014.09 1013.69 1013.23 1012.74 1012.24 1011.75 1011.29 1010.88 1010.51 1010.20 1009.94 1009.71 1009.50 1009.27 1009.02 1008.72 1008.37 1007.96 1007.50 1006.99 1006.47 1005.95 1005.45
1016.49 1015.97 1015.65 1015.52 1015.55 1015.68 1015.86 1016.03 1016.14 1016.18 1016.14 1016.03 1015.87 1015.67 1015.47 1015.26 1015.04 1014.81 1014.55 1014.24 1013.88 1013.46 1012.99 1012.47 1011.93 1011.38 1010.87 1010.39 1009.97 1009.62 1009.32 1009.08 1008.86 1008.66 1008.44 1008.19 1007.90 1007.55 1007.15 1006.71 1006.24 1005.75 1005.29
1016.51 1015.91 1015.52 1015.33 1015.32 1015.42 1015.58 1015.75 1015.88 1015.93 1015.91 1015.82 1015.67 1015.48 1015.27 1015.05 1014.82 1014.57 1014.29 1013.98 1013.61 1013.18 1012.69 1012.15 1011.59 1011.01 1010.46 1009.94 1009.48 1009.08 1008.76 1008.49 1008.27 1008.08 1007.89 1007.69 1007.45 1007.18 1006.85 1006.47 1006.06 1005.63 1005.20
1016.59 1015.96 1015.52 1015.28 1015.22 1015.28 1015.42 1015.57 1015.69 1015.75 1015.73 1015.64 1015.49 1015.30 1015.08 1014.84 1014.60 1014.33 1014.04 1013.71 1013.33 1012.90 1012.40 1011.86 1011.29 1010.70 1010.13 1009.59 1009.10 1008.67 1008.32 1008.03 1007.81 1007.62 1007.45 1007.29 1007.10 1006.88 1006.61 1006.31 1005.96 1005.58 1005.19
1016.76 1016.10 1015.64 1015.36 1015.25 1015.27 1015.36 1015.48 1015.57 1015.62 1015.60 1015.51 1015.36 1015.16 1014.93 1014.68 1014.41 1014.12 1013.81 1013.47 1013.08 1012.64 1012.16 1011.62 1011.06 1010.48 1009.91 1009.36 1008.86 1008.42 1008.05 1007.75 1007.51 1007.32 1007.16 1007.01 1006.86 1006.68 1006.46 1006.20 1005.90 1005.56 1005.20
1016.99 1016.33 1015.85 1015.53 1015.37 1015.34 1015.37 1015.45 1015.51 1015.53 1015.50 1015.41 1015.25 1015.05 1014.81 1014.54 1014.25 1013.94 1013.61 1013.25 1012.85 1012.41 1011.94 1011.42 1010.88 1010.33 1009.78 1009.25 1008.75 1008.31 1007.94 1007.62 1007.37 1007.16 1007.00 1006.85 1006.70 1006.54 1006.35 1006.12 1005.85 1005.54 1005.19
1017.25 1016.60 1016.09 1015.74 1015.52 1015.42 1015.40 1015.42 1015.44 1015.44 1015.40 1015.30 1015.15 1014.95 1014.70 1014.42 1014.10 1013.76 1013.40 1013.02 1012.61 1012.17 1011.70 1011.21 1010.71 1010.19 1009.68 1009.18 1008.72 1008.29 1007.92 1007.60 1007.33 1007.10 1006.92 1006.76 1006.60 1006.43 1006.25 1006.03 1005.77 1005.47 1005.13
1017.50 1016.85 1016.31 1015.91 1015.63 1015.46 1015.37 1015.34 1015.33 1015.31 1015.26 1015.17 1015.02 1014.82 1014.56 1014.26 1013.92 1013.55 1013.15 1012.74 1012.31 1011.86 1011.41 1010.94 1010.48 1010.01 1009.55 1009.11 1008.68 1008.28 1007.92 1007.60 1007.32 1007.07 1006.86 1006.67 1006.49 1006.31 1006.11 1005.88 1005.62 1005.33 1005.00
1017.69 1017.02 1016.45 1015.99 1015.65 1015.41 1015.26 1015.18 1015.14 1015.11 1015.06 1014.98 1014.84 1014.64 1014.38 1014.06 1013.68 1013.27 1012.83 1012.37 1011.91 1011.46 1011.01 1010.58 1010.16 1009.75 1009.35 1008.96 1008.59 1008.23 1007.89 1007.58 1007.29 1007.02 1006.78 1006.56 1006.35 1006.14 1005.92 1005.68 1005.42 1005.12 1004.79
1017.77 1017.09 1016.47 1015.96 1015.55 1015.25 1015.05 1014.93 1014.87 1014.83 1014.80 1014.73 1014.60 1014.41 1014.14 1013.79 1013.38 1012.92 1012.44 1011.94 1011.45 1010.98 1010.54 1010.13 1009.76 1009.41 1009.08 1008.75 1008.43 1008.12 1007.81 1007.50 1007.20 1006.92 1006.65 1006.41 1006.17 1005.93 1005.70 1005.45 1005.17 1004.88 1004.56
1017.74 1017.03 1016.37 1015.80 1015.33 1014.98 1014.74 1014.60 1014.54 1014.51 1014.49 1014.44 1014.33 1014.15 1013.87 1013.50 1013.05 1012.55 1012.01 1011.48 1010.96 1010.48 1010.05 1009.67 1009.34 1009.05 1008.78 1008.52 1008.25 1007.98 1007.69 1007.39 1007.09 1006.79 1006.50 1006.23 1005.97 1005.71 1005.46 1005.21 1004.94 1004.66 1004.35
1017.59 1016.85 1016.16 1015.55 1015.04 1014.65 1014.39 1014.24 1014.18 1014.17 1014.17 1014.15 1014.06 1013.88 1013.60 1013.21 1012.73 1012.19 1011.62 1011.05 1010.52 1010.04 1009.62 1009.28 1009.00 1008.77 1008.55 1008.35 1008.12 1007.88 1007.61 1007.31 1006.99 1006.68 1006.36 1006.07 1005.79 1005.52 1005.27 1005.02 1004.77 1004.49 1004.20
1017.34 1016.59 1015.87 1015.23 1014.70 1014.30 1014.03 1013.88 1013.83 1013.85 1013.87 1013.87 1013.80 1013.62 1013.34 1012.94 1012.45 1011.89 1011.31 1010.73 1010.20 1009.74 1009.36 1009.07 1008.84 1008.65 1008.49 1008.32 1008.13 1007.90 1007.63 1007.32 1006.98 1006.63 1006.29 1005.97 1005.67 1005.41 1005.16 1004.92 1004.68 1004.43 1004.15
1017.03 1016.27 1015.54 1014.89 1014.35 1013.95 1013.68 1013.54 1013.51 1013.54 1013.59 1013.60 1013.54 1013.38 1013.10 1012.71 1012.22 1011.67 1011.10 1010.55 1010.05 1009.64 1009.31 1009.07 1008.89 1008.76 1008.64 1008.50 1008.32 1008.09 1007.80 1007.45 1007.08 1006.69 1006.32 1005.97 1005.65 1005.38 1005.14 1004.92 1004.70 1004.47 1004.22
1016.70 1015.93 1015.21 1014.56 1014.02 1013.62 1013.37 1013.24 1013.22 1013.26 1013.31 1013.33 1013.28 1013.12 1012.85 1012.48 1012.01 1011.50 1010.98 1010.48 1010.05 1009.71 1009.45 1009.28 1009.17 1009.09 1009.00 1008.88 1008.70 1008.44 1008.11 1007.72 1007.30 1006.86 1006.44 1006.06 1005.73 1005.45 1005.22 1005.02 1004.82 1004.62 1004.39
1016.36 1015.60 1014.89 1014.25 1013.73 1013.33 1013.08 1012.95 1012.92 1012.95 1013.00 1013.01 1012.96 1012.80 1012.55 1012.21 1011.79 1011.33 1010.88 1010.48 1010.14 1009.89 1009.73 1009.64 1009.60 1009.57 1009.51 1009.39 1009.19 1008.90 1008.53 1008.09 1007.61 1007.12 1006.66 1006.24 1005.89 1005.60 1005.38 1005.20 1005.03 1004.86 1004.65
1016.02 1015.29 1014.59 1013.97 1013.45 1013.07 1012.81 1012.66 1012.61 1012.61 1012.63 1012.61 1012.54 1012.39 1012.15 1011.84 1011.48 1011.10 1010.75 1010.45 1010.22 1010.08 1010.02 1010.02 1010.05 1010.06 1010.03 1009.92 1009.70 1009.38 1008.97 1008.48 1007.95 1007.42 1006.92 1006.48 1006.11 1005.83 1005.62 1005.46 1005.32 1005.18 1005.00
1015.71 1015.00 1014.32 1013.72 1013.21 1012.81 1012.53 1012.36 1012.26 1012.21 1012.18 1012.12 1012.01 1011.85 1011.62 1011.35 1011.05 1010.76 1010.50 1010.31 1010.20 1010.18 1010.22 1010.30 1010.39 1010.45 1010.44 1010.34 1010.11 1009.78 1009.33 1008.82 1008.26 1007.71 1007.20 1006.75 1006.39 1006.12 1005.93 1005.79 1005.69 1005.57 1005.43
Thickness
5731 5730 5728 5728 5727 5723 5720 5718 5715 5712 5709 5707 5704 5701 5699 5697 5696 5694 5691 5689 5686 5685 5682 5681 5679 5677 5676 5674 5674 5673 5674 5673 5674 5673 5674 5678 5680 5679 5679 5681 5681 5682 5681
5724 5722 5721 5720 5719 5715 5714 5712 5709 5706 5703 5700 5698 5695 5693 5693 5691 5689 5685 5683 5681 5680 5680 5676 5675 5673 5671 5669 5669 5668 5668 5669 5668 5665 5665 5667 5670 5671 5675 5674 5674 5675 5676
5716 5714 5713 5712 5711 5708 5707 5706 5702 5699 5697 5694 5694 5691 5689 5688 5686 5683 5681 5679 5677 5676 5674 5673 5671 5669 5668 5666 5664 5663 5661 5661 5661 5660 5657 5657 5659 5662 5666 5667 5668 5667 5668
5711 5709 5707 5704 5704 5703 5702 5699 5696 5694 5691 5689 5688 5684 5682 5680 5679 5678 5676 5674 5673 5672 5670 5668 5667 5665 5663 5661 5660 5660 5657 5655 5654 5654 5653 5652 5652 5650 5654 5659 5660 5660 5659
5705 5702 5701 5699 5699 5698 5696 5694 5691 5688 5685 5683 5681 5679 5677 5675 5675 5673 5671 5669 5669 5666 5665 5663 5662 5660 5659 5657 5655 5654 5652 5651 5649 5649 5648 5647 5646 5645 5644 5646 5650 5652 5653
5698 5697 5696 5695 5693 5692 5690 5688 5684 5681 5679 5677 5676 5673 5671 5669 5667 5666 5665 5665 5665 5662 5660 5660 5657 5656 5654 5652 5650 5649 5648 5646 5644 5643 5643 5641 5640 5639 5638 5638 5640 5643 5645
5691 5690 5689 5688 5686 5683 5681 5680 5677 5674 5673 5671 5670 5667 5665 5664 5662 5660 5660 5659 5659 5658 5656 5655 5653 5652 5650 5648 5647 5644 5643 5641 5639 5638 5638 5638 5637 5636 5634 5633 5635 5635 5639
5686 5684 5683 5681 5679 5677 5674 5672 5670 5669 5668 5666 5664 5663 5661 5660 5659 5656 5655 5654 5653 5653 5651 5650 5649 5647 5646 5645 5642 5641 5640 5638 5636 5635 5633 5632 5632 5631 5630 5629 5628 5628 5630
5681 5679 5678 5675 5672 5670 5668 5667 5665 5664 5663 5661 5660 5658 5657 5655 5654 5652 5651 5650 5648 5648 5647 5645 5644 5642 5641 5640 5638 5637 5634 5633 5632 5630 5629 5627 5627 5625 5625 5624 5622 5619 5620
5676 5674 5673 5671 5668 5666 5665 5663 5661 5660 5658 5657 5655 5655 5653 5651 5650 5649 5647 5645 5644 5643 5642 5641 5640 5639 5637 5636 5634 5633 5631 5628 5626 5624 5622 5621 5621 5620 5619 5617 5616 5614 5612
5672 5671 5670 5668 5666 5664 5661 5659 5657 5656 5654 5653 5651 5649 5648 5648 5647 5645 5644 5642 5641 5640 5639 5638 5637 5636 5634 5632 5629 5628 5626 5623 5621 5619 5618 5616 5615 5614 5613 5611 5609 5608 5606
5671 5670 5668 5666 5663 5660 5658 5655 5653 5652 5651 5649 5647 5645 5645 5644 5643 5642 5640 5639 5638 5637 5636 5635 5634 5633 5631 5628 5626 5623 5622 5619 5617 5615 5614 5612 5610 5608 5606 5604 5603 5601 5599
5668 5667 5664 5661 5658 5656 5654 5652 5651 5649 5648 5647 5645 5643 5642 5641 5639 5638 5638 5637 5635 5634 5633 5632 5631 5630 5628 5625 5623 5620 5617 5615 5613 5611 5609 5607 5604 5601 5600 5597 5596 5595 5594
5664 5662 5659 5656 5654 5652 5651 5649 5648 5647 5645 5645 5643 5641 5639 5638 5637 5637 5636 5635 5633 5631 5630 5629 5628 5627 5625 5622 5620 5617 5614 5612 5609 5607 5605 5602 5599 5596 5593 5591 5589 5587 5586
5659 5657 5655 5653 5651 5649 5648 5646 5645 5644 5643 5642 5641 5639 5638 5637 5636 5635 5634 5633 5631 5630 5628 5627 5626 5625 5622 5619 5614 5612 5611 5607 5605 5603 5600 5597 5593 5589 5586 5585 5583 5581 5579
5655 5653 5652 5650 5648 5646 5644 5643 5642 5641 5641 5640 5640 5639 5637 5636 5634 5633 5633 5631 5629 5627 5626 5624 5622 5620 5618 5610 5606 5603 5604 5603 5600 5597 5595 5593 5589 5585 5580 5576 5573 5571 5571
5651 5649 5648 5646 5644 5643 5642 5641 5641 5640 5640 5639 5639 5638 5636 5634 5633 5632 5631 5629 5626 5624 5622 5621 5619 5615 5610 5604 5600 5598 5598 5598 5596 5593 5590 5589 5587 5581 5578 5574 5570 5567 5562
5648 5647 5646 5644 5643 5643 5642 5641 5641 5640 5639 5638 5638 5637 5635 5634 5632 5630 5628 5626 5624 5622 5619 5617 5614 5610 5606 5599 5596 5594 5595 5595 5592 5589 5586 5582 5579 5576 5571 5570 5569 5566 5563
5646 5645 5644 5643 5642 5641 5641 5640 5640 5639 5638 5638 5637 5635 5634 5632 5630 5628 5625 5623 5621 5618 5616 5614 5610 5606 5602 5595 5592 5589 5593 5591 5589 5586 5582 5578 5575 5567 5563 5564 5563 5561 5559
5645 5644 5643 5642 5640 5639 5639 5638 5638 5637 5637 5636 5635 5634 5632 5629 5628 5625 5623 5621 5618 5616 5615 5612 5608 5604 5600 5593 5589 5585 5590 5588 5586 5583 5579 5572 5567 5561 5557 5558 5557 5555 5554
5644 5643 5642 5640 5639 5639 5638 5636 5636 5635 5635 5635 5634 5632 5630 5628 5626 5623 5620 5618 5617 5614 5612 5609 5606 5602 5597 5591 5585 5581 5583 5583 5582 5580 5576 5570 5560 5556 5552 5549 5549 5546 5543
5643 5642 5640 5639 5639 5638 5636 5635 5634 5634 5634 5633 5632 5630 5628 5627 5625 5621 5619 5617 5615 5613 5611 5607 5605 5602 5597 5589 5583 5577 5574 5572 5574 5572 5569 5564 5555 5551 5548 5546 5542 5538 5536
5641 5640 5639 5639 5638 5638 5636 5634 5634 5634 5632 5631 5629 5628 5626 5624 5622 5620 5618 5616 5613 5613 5611 5607 5603 5600 5596 5589 5580 5576 5572 5568 5568 5567 5560 5556 5552 5549 5548 5543 5538 5536 5537
5640 5639 5639 5638 5638 5638 5636 5635 5634 5633 5631 5629 5628 5627 5625 5623 5620 5618 5617 5615 5612 5610 5607 5604 5600 5597 5593 5587 5581 5576 5574 5568 5567 5565 5560 5554 5550 5548 5544 5541 5540 5537 5534
5639 5638 5638 5638 5638 5637 5636 5635 5633 5631 5629 5628 5627 5626 5626 5623 5619 5616 5613 5611 5606 5602 5598 5597 5595 5591 5586 5576 5567 5566 5567 5564 5561 5557 5558 5556 5554 5550 5546 5543 5539 5535 5532
5638 5637 5637 5637 5637 5636 5635 5634 5632 5630 5627 5626 5626 5626 5625 5623 5621 5617 5613 5605 5601 5595 5591 5586 5583 5582 5574 5568 5564 5561 5557 5555 5552 5553 5556 5553 5550 5547 5543 5540 5536 5532 5528